Weather History for KCNY - September, 2014

Change the Weather History Date:

Wednesday, September 24, 2014

  Actual Average Record
Temperature  
Mean Temperature 73 °F 64 °F  
Max Temperature 88 °F 79 °F 98 °F (1949)
Min Temperature 57 °F 49 °F 34 °F (1946)
Degree Days  
Heating Degree Days 0 3  
Month to date heating degree days 0 31  
Since 1 July heating degree days 0 32  
Cooling Degree Days 8 2  
Month to date cooling degree days 189 111  
Year to date cooling degree days 1422 1277  
Growing Degree Days 22 (Base 50)    
Moisture  
Dew Point 45 °F    
Average Humidity 45    
Maximum Humidity 72    
Minimum Humidity 18    
Precipitation  
Precipitation 0.00 in 0.04 in 0.80 in (1983)
Month to date precipitation 0.92 0.78  
Year to date precipitation 6.23 6.16  
Sea Level Pressure  
Sea Level Pressure 30.00 in    
Wind  
Wind Speed 4 mph (West)    
Max Wind Speed 13 mph    
Max Gust Speed 16 mph    
Visibility 10 miles    
Events      
T = Trace of Precipitation, MM = Missing Value Source: NWS Daily Summary

Daily Weather History Graph

Daily Weather History Graph

Search for Another Location

Airport or City:

Trip Planner

Search our weather history database for the weather conditions in past years. The results will help you decide how hot, cold, wet, or windy it might be!

Date:

Astronomy

Sep. 24, 2014 Rise Set
Actual Time 7:08 AM MDT 7:12 PM MDT
Civil Twilight 6:42 AM MDT 7:39 PM MDT
Nautical Twilight 6:11 AM MDT 8:10 PM MDT
Astronomical Twilight 5:39 AM MDT 8:41 PM MDT
Moon 7:31 AM MDT (9/24) 7:26 PM MDT (9/24)
Length of Visible Light 12h 57m
Length of Day
12h 04m
New Moon, 0% of the Moon is Illuminated
Sep 24
New Moon
Oct 1
First Quarter
Oct 8
Full
Oct 15
Last Quarter
Oct 23
New

Hourly Weather History & Observations

Time (MDT) Temp. Dew Point Humidity Pressure Visibility Wind Dir Wind Speed Gust Speed Precip Events Conditions
12:53 AM 59.0 °F 46.0 °F 62% 30.00 in 10.0 mi Calm Calm - N/A   Clear
1:53 AM 59.0 °F 45.0 °F 60% 30.01 in 10.0 mi West 4.6 mph - N/A   Clear
2:53 AM 57.9 °F 48.0 °F 70% 30.00 in 10.0 mi WSW 3.5 mph - N/A   Clear
3:53 AM 60.1 °F 46.0 °F 60% 30.00 in 10.0 mi Calm Calm - N/A   Clear
4:53 AM 60.1 °F 46.0 °F 60% 30.01 in 10.0 mi Calm Calm - N/A   Clear
5:53 AM 60.1 °F 46.9 °F 62% 30.01 in 10.0 mi Calm Calm - N/A   Clear
6:53 AM 59.0 °F 48.0 °F 67% 30.04 in 10.0 mi South 6.9 mph - N/A   Clear
7:53 AM 62.1 °F 48.9 °F 62% 30.06 in 10.0 mi SSE 8.1 mph - N/A   Clear
8:53 AM 68.0 °F 48.0 °F 49% 30.07 in 10.0 mi SSE 6.9 mph - N/A   Clear
9:53 AM 73.0 °F 46.9 °F 39% 30.08 in 10.0 mi East 10.4 mph - N/A   Clear
10:53 AM 75.9 °F 46.9 °F 36% 30.07 in 10.0 mi East 6.9 mph - N/A   Clear
11:53 AM 79.0 °F 46.0 °F 31% 30.06 in 10.0 mi Variable 6.9 mph - N/A   Clear
12:53 PM 81.0 °F 46.0 °F 29% 30.05 in 10.0 mi East 5.8 mph - N/A   Clear
1:53 PM 84.0 °F 43.0 °F 24% 30.00 in 10.0 mi NNE 3.5 mph - N/A   Clear
2:53 PM 84.9 °F 39.9 °F 20% 29.98 in 10.0 mi Calm Calm - N/A   Clear
3:53 PM 88.0 °F 41.0 °F 19% 29.95 in 10.0 mi Calm Calm - N/A   Clear
4:53 PM 87.1 °F 39.9 °F 19% 29.94 in 10.0 mi North 5.8 mph - N/A   Clear
5:53 PM 86.0 °F 39.9 °F 20% 29.93 in 10.0 mi Calm Calm - N/A   Clear
6:53 PM 84.0 °F 39.0 °F 20% 29.94 in 10.0 mi NNW 5.8 mph - N/A   Clear
7:53 PM 75.9 °F 42.1 °F 30% 29.94 in 10.0 mi NNW 6.9 mph - N/A   Clear
8:53 PM 71.1 °F 44.1 °F 38% 29.95 in 10.0 mi West 3.5 mph - N/A   Clear
9:53 PM 64.9 °F 45.0 °F 48% 29.97 in 10.0 mi West 4.6 mph - N/A   Clear
10:53 PM 66.0 °F 45.0 °F 47% 29.95 in 10.0 mi Calm Calm - N/A   Clear
11:53 PM 64.0 °F 43.0 °F 46% 29.96 in 10.0 mi West 4.6 mph - N/A   Clear